Warsaw, IN

5:47 AM EDT on April 29, 2017 (GMT -0400)
Warsaw Municipal

Weather History for KASW - March, 2014

Change the Weather History Date:

Friday, March 28, 2014

  Actual Average Record
Temperature  
Mean Temperature 40 °F -  
Max Temperature 51 °F 51 °F 78 °F (2004)
Min Temperature 30 °F 33 °F 5 °F (1965)
Degree Days  
Heating Degree Days 24    
Moisture  
Dew Point 35 °F    
Average Humidity 84    
Maximum Humidity 93    
Minimum Humidity 66    
Precipitation  
Precipitation 0.00 in - - ()
Sea Level Pressure  
Sea Level Pressure 29.87 in    
Wind  
Wind Speed 14 mph (West)    
Max Wind Speed 24 mph    
Max Gust Speed 36 mph    
Visibility 10 miles    
Events Rain    
Averages and records for this station are not official NWS values.
T = Trace of Precipitation, MM = Missing Value Source: NWS Daily Summary

Daily Weather History Graph

Daily Weather History Graph

Search for Another Location

Airport or City:

Trip Planner

Search our weather history database for the weather conditions in past years. The results will help you decide how hot, cold, wet, or windy it might be!

Date:

Astronomy

Mar. 28, 2014 Rise Set
Actual Time 7:33 AM EDT 8:04 PM EDT
Civil Twilight 7:05 AM EDT 8:31 PM EDT
Nautical Twilight 6:32 AM EDT 9:04 PM EDT
Astronomical Twilight 5:59 AM EDT 9:38 PM EDT
Moon 6:05 AM EDT (3/28) 5:58 PM EDT (3/28)
Length of Visible Light 13h 26m
Length of Day
12h 30m
Waning Crescent, 6% of the Moon is Illuminated
Mar 28
Waning Crescent
Mar 30
New
Apr 7
First Quarter
Apr 15
Full
Apr 22
Last Quarter

Hourly Weather History & Observations

Time (EDT) Temp. Windchill Dew Point Humidity Pressure Visibility Wind Dir Wind Speed Gust Speed Precip Events Conditions
12:15 AM 48.2 °F - 37.4 °F 66% 29.61 in 10.0 mi South 12.7 mph 25.3 mph N/A   Overcast
12:35 AM 50.0 °F - 39.2 °F 66% 29.61 in 10.0 mi SSW 16.1 mph 31.1 mph N/A   Overcast
12:55 AM 50.0 °F - 41.0 °F 71% 29.60 in 10.0 mi SSW 18.4 mph 26.5 mph N/A   Overcast
1:15 AM 50.0 °F - 41.0 °F 71% 29.56 in 10.0 mi South 21.9 mph 35.7 mph N/A   Mostly Cloudy
1:35 AM 50.0 °F - 42.8 °F 76% 29.58 in 10.0 mi SSW 16.1 mph 28.8 mph N/A   Mostly Cloudy
1:55 AM 50.0 °F - 42.8 °F 76% 29.58 in 10.0 mi SSW 18.4 mph 32.2 mph N/A   Mostly Cloudy
2:15 AM 50.0 °F - 42.8 °F 76% 29.58 in 10.0 mi SSW 23.0 mph 31.1 mph N/A   Mostly Cloudy
2:35 AM 50.0 °F - 42.8 °F 76% 29.58 in 10.0 mi SSW 16.1 mph 28.8 mph N/A   Overcast
2:55 AM 50.0 °F - 44.6 °F 82% 29.57 in 10.0 mi SSW 13.8 mph 27.6 mph N/A   Overcast
3:15 AM 50.0 °F - 44.6 °F 82% 29.57 in 10.0 mi SSW 10.4 mph 20.7 mph N/A   Overcast
3:35 AM 50.0 °F - 44.6 °F 82% 29.57 in 10.0 mi SSW 18.4 mph 28.8 mph N/A   Overcast
3:55 AM 50.0 °F - 44.6 °F 82% 29.57 in 10.0 mi SSW 18.4 mph 32.2 mph N/A   Overcast
4:15 AM 50.0 °F - 44.6 °F 82% 29.56 in 10.0 mi SSW 12.7 mph 27.6 mph N/A   Overcast
4:35 AM 50.0 °F - 44.6 °F 82% 29.55 in 10.0 mi SSW 13.8 mph 23.0 mph N/A   Overcast
4:55 AM 51.8 °F - 44.6 °F 76% 29.55 in 10.0 mi SSW 13.8 mph 27.6 mph N/A   Overcast
5:15 AM 50.0 °F - 44.6 °F 82% 29.56 in 10.0 mi SSW 16.1 mph 24.2 mph N/A   Overcast
5:35 AM 50.0 °F - 44.6 °F 82% 29.56 in 10.0 mi SSW 16.1 mph 23.0 mph N/A Rain Light Rain
5:55 AM 50.0 °F - 44.6 °F 82% 29.57 in 10.0 mi SW 11.5 mph 29.9 mph N/A   Overcast
6:15 AM 50.0 °F - 44.6 °F 82% 29.59 in 10.0 mi WSW 19.6 mph 28.8 mph N/A Rain Light Rain
6:35 AM 48.2 °F - 42.8 °F 82% 29.60 in 7.0 mi SW 16.1 mph 28.8 mph N/A Rain Rain
6:55 AM 46.4 °F 39.2 °F 41.0 °F 81% 29.63 in 10.0 mi WSW 18.4 mph 26.5 mph N/A   Overcast
7:15 AM 44.6 °F 37.2 °F 41.0 °F 87% 29.64 in 10.0 mi West 17.3 mph 26.5 mph N/A   Overcast
7:35 AM 42.8 °F 33.3 °F 37.4 °F 81% 29.66 in 10.0 mi WSW 24.2 mph 34.5 mph N/A   Overcast
7:55 AM 42.8 °F 35.4 °F 37.4 °F 81% 29.67 in 10.0 mi WSW 15.0 mph 24.2 mph N/A   Overcast
8:15 AM 41.0 °F 31.6 °F 37.4 °F 87% 29.69 in 10.0 mi WSW 20.7 mph 31.1 mph N/A   Overcast
8:35 AM 41.0 °F 31.1 °F 37.4 °F 87% 29.70 in 10.0 mi WSW 23.0 mph 32.2 mph N/A   Overcast
8:55 AM 41.0 °F 32.2 °F 37.4 °F 87% 29.72 in 4.0 mi WSW 18.4 mph 25.3 mph N/A Rain Light Rain
9:15 AM 39.2 °F 30.8 °F 37.4 °F 93% 29.74 in 1.8 mi WSW 15.0 mph 25.3 mph N/A   Drizzle
9:35 AM 39.2 °F 30.8 °F 37.4 °F 93% 29.75 in 2.0 mi WSW 15.0 mph 21.9 mph N/A   Drizzle
9:55 AM 39.2 °F 31.6 °F 37.4 °F 93% 29.77 in 5.0 mi WSW 12.7 mph 19.6 mph N/A   Light Drizzle
10:15 AM 39.2 °F 29.8 °F 37.4 °F 93% 29.80 in 5.0 mi WNW 18.4 mph 24.2 mph N/A Rain Light Rain
10:35 AM 37.4 °F 27.8 °F 35.6 °F 93% 29.84 in 10.0 mi NW 17.3 mph 24.2 mph N/A   Overcast
10:55 AM 35.6 °F 25.2 °F 33.8 °F 93% 29.87 in 10.0 mi NW 18.4 mph 24.2 mph N/A   Overcast
11:15 AM 35.6 °F 26.6 °F 32.0 °F 87% 29.89 in 10.0 mi NNW 13.8 mph 23.0 mph N/A   Overcast
11:35 AM 35.6 °F 25.9 °F 32.0 °F 87% 29.89 in 10.0 mi NW 16.1 mph 25.3 mph N/A   Overcast
11:55 AM 35.6 °F 25.2 °F 32.0 °F 87% 29.90 in 10.0 mi NNW 18.4 mph 25.3 mph N/A   Overcast
12:15 PM 35.6 °F 26.6 °F 32.0 °F 87% 29.92 in 10.0 mi NW 13.8 mph 23.0 mph N/A   Overcast
12:35 PM 35.6 °F 27.1 °F 32.0 °F 87% 29.94 in 10.0 mi NW 12.7 mph 21.9 mph N/A   Overcast
12:55 PM 35.6 °F 29.2 °F 32.0 °F 87% 29.97 in 10.0 mi NW 8.1 mph 20.7 mph N/A   Overcast
1:15 PM 35.6 °F 28.0 °F 32.0 °F 87% 29.99 in 10.0 mi WNW 10.4 mph 16.1 mph N/A   Overcast
1:35 PM 35.6 °F 29.2 °F 32.0 °F 87% 30.01 in 10.0 mi West 8.1 mph 17.3 mph N/A   Overcast
1:55 PM 35.6 °F 27.5 °F 32.0 °F 87% 30.01 in 10.0 mi NW 11.5 mph - N/A   Overcast
2:15 PM 35.6 °F 26.6 °F 32.0 °F 87% 30.03 in 10.0 mi NW 13.8 mph - N/A   Overcast
2:35 PM 35.6 °F 27.5 °F 32.0 °F 87% 30.04 in 10.0 mi WNW 11.5 mph - N/A   Overcast
2:55 PM 37.4 °F 30.3 °F 32.0 °F 81% 30.05 in 10.0 mi WNW 10.4 mph - N/A   Overcast
3:15 PM 37.4 °F 30.3 °F 32.0 °F 81% 30.05 in 10.0 mi NW 10.4 mph - N/A   Overcast
3:35 PM 37.4 °F - 32.0 °F 81% - 10.0 mi North - - N/A   Overcast
3:55 PM 37.4 °F - 32.0 °F 81% - - North - - N/A   Unknown
4:15 PM 37.4 °F 28.9 °F 32.0 °F 81% 30.08 in 10.0 mi WNW 13.8 mph - N/A   Unknown
4:35 PM 37.4 °F 28.9 °F 32.0 °F 81% 30.08 in 10.0 mi WNW 13.8 mph - N/A   Overcast
4:55 PM 37.4 °F 30.3 °F 32.0 °F 81% 30.10 in 10.0 mi WNW 10.4 mph 17.3 mph N/A   Overcast
5:15 PM 37.4 °F 29.3 °F 32.0 °F 81% 30.11 in 10.0 mi NW 12.7 mph 17.3 mph N/A   Overcast
5:35 PM 37.4 °F 28.5 °F 32.0 °F 81% 30.11 in 10.0 mi NW 15.0 mph 20.7 mph N/A   Overcast
5:55 PM 37.4 °F 28.9 °F 30.2 °F 75% 30.10 in 10.0 mi NW 13.8 mph 21.9 mph N/A   Overcast
6:15 PM 37.4 °F 30.3 °F 32.0 °F 81% 30.11 in 10.0 mi NW 10.4 mph - N/A   Overcast
6:35 PM 37.4 °F 31.4 °F 32.0 °F 81% 30.11 in 10.0 mi NNW 8.1 mph - N/A   Overcast
6:55 PM 35.6 °F 27.5 °F 30.2 °F 81% 30.11 in 10.0 mi North 11.5 mph - N/A   Scattered Clouds
7:15 PM 35.6 °F 28.6 °F 30.2 °F 81% 30.11 in 10.0 mi North 9.2 mph - N/A   Clear
7:35 PM 35.6 °F 29.2 °F 30.2 °F 81% 30.12 in 10.0 mi NNE 8.1 mph - N/A   Clear
7:55 PM 33.8 °F 27.0 °F 30.2 °F 87% 30.12 in 10.0 mi North 8.1 mph - N/A   Clear
8:15 PM 33.8 °F 27.0 °F 30.2 °F 87% 30.13 in 10.0 mi North 8.1 mph - N/A   Clear
8:35 PM 32.0 °F 24.8 °F 30.2 °F 93% 30.12 in 10.0 mi NNE 8.1 mph - N/A   Clear
8:55 PM 32.0 °F 24.2 °F 30.2 °F 93% 30.13 in 10.0 mi NNE 9.2 mph - N/A   Clear
9:15 PM 32.0 °F 25.6 °F 28.4 °F 87% 30.14 in 10.0 mi NNE 6.9 mph - N/A   Clear
9:35 PM 32.0 °F 25.6 °F 28.4 °F 87% 30.15 in 10.0 mi NE 6.9 mph - N/A   Clear
9:55 PM 32.0 °F 25.6 °F 28.4 °F 87% 30.16 in 10.0 mi ENE 6.9 mph - N/A   Clear
10:15 PM 32.0 °F 26.4 °F 28.4 °F 87% 30.16 in 10.0 mi ENE 5.8 mph - N/A   Clear
10:35 PM 30.2 °F 25.4 °F 28.4 °F 93% 30.15 in 10.0 mi East 4.6 mph - N/A   Clear
10:55 PM 30.2 °F - 28.4 °F 93% 30.17 in 10.0 mi Calm Calm - N/A   Clear
11:15 PM 30.2 °F - 28.4 °F 93% 30.17 in 10.0 mi Calm Calm - N/A   Clear
11:35 PM 30.2 °F - 28.4 °F 93% 30.16 in 10.0 mi Calm Calm - N/A   Scattered Clouds
11:55 PM 30.2 °F 26.7 °F 28.4 °F 93% 30.16 in 10.0 mi NE 3.5 mph - N/A   Overcast